ATLAS 5 CENTAUR DEB, 44016

Orbit data source: Space-Track

ATLAS 5 CENTAUR DEB, 44016 is space debris in HEO originally from a launch on Wed, 17 Sep 2014 UTC launched from the Air Force Eastern Test Range (AFETR). Debris objects in space refer to the collection of defunct objects orbiting the Earth. Examples of debris include non-operational satellites, rocket bodies, and fragments generated from explosions, collisions, or faulty payload assembly.

Loading next visibility...
Identifier
44016, 2014-055BX
Orbit
HEO
Country
Flag of USUS
Related business
Flag of USUnited Launch Alliance/Lockheed Martin (US)
Manufacturer
Unknown
Mission
Spacecraft
Bus & Motor
Unknown
Mass
Unknown
Launch date (UTC)
2014-09-17 (12 years ago)
Launch vehicle
Unknown
Launch site
Air Force Eastern Test Range (AFETR)
Object type
Payload
Rocket body
Debris
Shape & HBR
Unknown shape, 1.1 m
Radar Cross Section
Medium (>0.1 m² and <1 m²)

Expand to show TLE details & history
Last TLE update: 6 days ago

TLE from 6 days ago
0 ATLAS 5 CENTAUR DEB
1 44016U 14055BX  26202.61049178 -.00000104  00000-0  00000-0 0  9994
2 44016  19.7655 149.1386 4696632 153.4213 241.2654  1.83855473 52035
Epoch: 2026-07-21T14:39Z
TLE epoch observation values (Epoch: 2026-07-21T14:39:06.489Z)
Latitude
0.00001°
Longitude
-10.06334°
Altitude
31,456.875 km
Speed
2.629 km/s
True Right ascension
09h 56m 21s
True Declination
0° 00' 00"
Sunlit
Object was in daylight at epoch
Visualization orbit readout
Latitude
Unknown
Longitude
Unknown
Altitude
Unknown
Speed
Unknown
Apparent Right ascension
Unknown
Apparent Declination
Unknown
Sunlit
N/A
Visualization observer readout
Local Sidereal Time
17:58:21
Azimuth
Unknown
Elevation
Unknown
Doppler factor
Unknown
Orbital elements
Apogee altitude
34,989.872 km
Perigee altitude
8,549.758 km
Semi-major axis
28,147.952 km
Eccentricity
0.46966
Inclination
19.7655°
RAAN
149.1386°
Arg. of periapsis
153.4213°
True anomaly
206.5832°
Mean anomaly
241.2654°
Eccentric anomaly
222.93526°
Mean motion
0.45959 °/min
Orbital period
783.3 mins
BSTAR
0
Loading maneuver chart data...
Computing Atmospheric mass density...

Documentation

Showing up to 5 results
|